Temp
-10 -11 -11 -11 -10 -11 -10 -10 -10 -11 -11 -10 -10 -11 -11 -11 -11 -11 -11 -11 -11 -10 -11 -11 -12 -11 -11 -11 -11 -10 -10 -9 -10 -10 -11 -10 -10 -10 -11 -10 -11 -11 -11 -11 -10
-10 -10 -10 -11 -11 -11 -10 -10 -10 -10 -10 -10 -10 -10 -10 -10 -10 -10 -11 -12 -12 -11 -11 -11 -12 -12 -11 -10 -11 -10 -10 -10 -10 -10 -10 -11 -10 -10 -11 -11 -11 -11 -12 -11 -11
-10 -10 -10 -10 -10 -10 -10 -10 -10 -10 -10 -10 -10 -10 -10 -9 -9 -9 -11 -12 -12 -12 -12 -11 -11 -11 -11 -10 -11 -11 -10 -11 -11 -11 -11 -11 -11 -11 -11 -11 -11 -11 -12 -11 -11
-10 -10 -10 -10 -10 -10 -10 -10 -11 -11 -11 -11 -10 -9 -9 -9 -9 -9 -11 -12 -12 -12 -12 -11 -12 -11 -11 -11 -12 -11 -11 -11 -12 -11 -11 -11 -11 -11 -11 -11 -10 -11 -12 -11 -11
-9 -9 -10 -10 -10 -10 -10 -10 -10 -10 -10 -10 -10 -10 -10 -9 -9 -10 -11 -11 -12 -12 -12 -12 -12 -12 -11 -11 -13 -11 -11 -11 -12 -12 -11 -11 -10 -11 -11 -11 -11 -12 -12 -11 -12
-10 -9 -9 -9 -9 -9 -9 -9 -9 -9 -9 -9 -9 -9 -9 -7 -10 -11 -11 -11 -12 -12 -12 -12 -12 -12 -12 -11 -12 -12 -12 -11 -11 -12 -12 -11 -10 -11 -11 -11 -12 -12 -12 -12 -12
-10 -9 -9 -9 -9 -9 -9 -9 -9 -9 -9 -9 -9 -9 -8 -7 -10 -11 -11 -11 -12 -12 -12 -13 -13 -12 -11 -11 -12 -12 -12 -11 -11 -12 -11 -12 -10 -11 -11 -12 -12 -12 -12 -12 -11
-9 -9 -9 -9 -9 -9 -9 -9 -9 -9 -9 -9 -9 -9 -7 -9 -10 -11 -12 -12 -12 -12 -12 -13 -13 -13 -12 -12 -12 -12 -12 -11 -10 -11 -12 -13 -8 -11 -11 -11 -11 -11 -11 -11 -11
-9 -9 -9 -9 -9 -9 -9 -9 -9 -9 -9 -10 -9 -9 -8 -9 -10 -12 -12 -12 -13 -12 -12 -13 -13 -13 -12 -12 -12 -12 -10 -9 -9 -12 -13 -13 -10 -11 -10 -11 -10 -11 -10 -11 -11
-9 -9 -9 -8 -9 -9 -9 -9 -9 -9 -9 -10 -10 -9 -9 -9 -10 -11 -12 -12 -13 -13 -12 -12 -12 -12 -11 -11 -9 -10 -10 -10 -12 -12 -13 -13 -12 -11 -11 -10 -10 -10 -10 -11 -11
-8 -8 -8 -8 -8 -8 -8 -9 -9 -9 -10 -10 -10 -10 -10 -10 -9 -11 -12 -13 -13 -13 -12 -12 -12 -9 -9 -9 -10 -12 -11 -11 -12 -13 -14 -13 -12 -11 -11 -9 -10 -10 -10 -11 -11
-8 -8 -9 -9 -10 -12 -12 -12 -11 -11 -10 -11 -11 -10 -10 -10 -10 -11 -12 -12 -14 -13 -12 -12 -10 -10 -11 -12 -12 -12 -12 -11 -12 -12 -13 -12 -11 -10 -10 -10 -10 -10 -10 -11 -11
-10 -12 -15 -17 -17 -18 -17 -17 -17 -16 -14 -12 -12 -11 -11 -11 -10 -11 -12 -12 -13 -14 -12 -12 -11 -12 -12 -12 -12 -11 -12 -12 -13 -13 -13 -13 -10 -10 -11 -10 -10 -10 -11 -11 -11
-17 -19 -19 -19 -20 -20 -20 -21 -21 -21 -19 -15 -15 -14 -13 -11 -10 -12 -12 -12 -12 -13 -13 -12 -12 -12 -12 -12 -12 -12 -11 -13 -13 -13 -12 -12 -8 -10 -11 -10 -10 -10 -11 -11 -11
-20 -20 -21 -21 -22 -23 -23 -23 -23 -23 -22 -20 -19 -17 -15 -12 -11 -12 -13 -13 -12 -12 -12 -10 -11 -11 -11 -10 -12 -10 -13 -13 -14 -13 -12 -12 -10 -10 -10 -11 -10 -11 -11 -11 -11
-21 -22 -21 -23 -23 -23 -24 -24 -24 -24 -23 -22 -22 -20 -17 -14 -12 -12 -13 -12 -12 -12 -11 -11 -12 -12 -12 -12 -12 -13 -13 -13 -13 -12 -11 -11 -11 -8 -11 -10 -11 -11 -11 -11 -12
-22 -22 -23 -23 -24 -24 -25 -24 -24 -24 -23 -23 -24 -23 -20 -17 -16 -13 -13 -12 -12 -12 -11 -11 -11 -12 -12 -12 -12 -12 -12 -12 -12 -12 -10 -10 -10 -9 -11 -11 -11 -10 -11 -12 -12
-23 -23 -24 -24 -25 -25 -25 -25 -25 -24 -24 -24 -23 -23 -22 -20 -17 -15 -14 -13 -13 -13 -12 -12 -12 -11 -11 -11 -11 -11 -12 -11 -11 -11 -10 -10 -9 -8 -10 -12 -11 -10 -11 -12 -12
-24 -24 -25 -25 -25 -25 -25 -25 -25 -25 -25 -24 -24 -24 -22 -21 -19 -17 -16 -15 -14 -13 -13 -12 -12 -12 -11 -11 -11 -11 -10 -11 -11 -11 -10 -9 -9 -9 -11 -11 -10 -11 -12 -11 -12
-24 -25 -25 -25 -25 -25 -26 -26 -26 -26 -25 -25 -24 -24 -22 -21 -21 -20 -17 -16 -15 -14 -12 -12 -12 -12 -12 -12 -12 -11 -12 -11 -11 -10 -10 -9 -9 -9 -11 -10 -10 -11 -11 -11 -11
-25 -26 -26 -26 -26 -26 -26 -26 -26 -25 -25 -25 -24 -23 -24 -22 -20 -20 -19 -17 -15 -13 -12 -12 -12 -12 -12 -11 -11 -11 -10 -10 -11 -10 -10 -9 -9 -10 -11 -11 -11 -11 -11 -11 -10
-26 -26 -26 -26 -26 -26 -26 -26 -26 -26 -25 -25 -25 -24 -23 -23 -21 -20 -20 -19 -15 -14 -13 -12 -12 -12 -11 -12 -11 -11 -11 -10 -9 -9 -9 -9 -9 -10 -11 -11 -11 -11 -11 -10 -11
-26 -26 -26 -26 -26 -26 -26 -26 -26 -26 -25 -25 -25 -24 -23 -23 -21 -20 -20 -20 -17 -16 -14 -12 -13 -12 -12 -11 -11 -10 -10 -9 -10 -10 -9 -9 -9 -10 -11 -11 -11 -11 -11 -11 -11
-26 -27 -26 -26 -26 -27 -26 -26 -26 -26 -25 -25 -25 -25 -24 -23 -22 -21 -20 -19 -19 -17 -16 -13 -12 -12 -11 -10 -11 -10 -10 -10 -10 -9 -9 -9 -9 -12 -11 -11 -10 -11 -11 -11 -11
-27 -27 -27 -27 -27 -26 -26 -26 -26 -26 -26 -25 -25 -25 -24 -23 -22 -22 -20 -19 -19 -18 -17 -14 -12 -11 -11 -11 -11 -11 -11 -10 -9 -9 -9 -10 -10 -10 -11 -11 -11 -12 -11 -11 -11
-26 -26 -27 -27 -27 -27 -27 -26 -26 -26 -26 -26 -25 -26 -24 -24 -23 -23 -20 -19 -19 -19 -17 -14 -13 -12 -11 -11 -11 -11 -10 -10 -9 -10 -9 -10 -11 -12 -12 -10 -11 -12 -12 -11 -10
-25 -26 -26 -26 -26 -26 -26 -26 -26 -25 -25 -25 -25 -25 -25 -24 -24 -24 -22 -20 -19 -19 -18 -15 -13 -12 -12 -12 -12 -11 -9 -9 -9 -10 -10 -10 -10 -12 -11 -11 -11 -12 -11 -12 -11
Height
5793 5793 5795 5796 5797 5798 5799 5800 5803 5805 5808 5809 5812 5815 5819 5823 5826 5829 5836 5840 5835 5834 5842 5844 5845 5847 5848 5849 5850 5850 5850 5856 5860 5860 5861 5856 5858 5856 5849 5848 5849 5848 5844 5842 5841
5788 5788 5788 5788 5789 5790 5791 5792 5794 5796 5797 5799 5800 5803 5806 5810 5813 5817 5834 5824 5823 5825 5834 5838 5836 5837 5837 5841 5841 5842 5842 5849 5855 5853 5854 5850 5850 5850 5845 5843 5847 5842 5840 5839 5837
5782 5781 5780 5780 5780 5781 5782 5783 5785 5786 5787 5789 5790 5793 5796 5798 5801 5811 5812 5816 5817 5819 5821 5826 5824 5825 5828 5831 5836 5836 5834 5845 5845 5847 5842 5844 5842 5837 5838 5841 5844 5839 5835 5833 5832
5777 5776 5775 5774 5774 5773 5773 5772 5773 5773 5775 5777 5779 5781 5784 5786 5788 5794 5801 5805 5809 5810 5811 5816 5815 5816 5822 5823 5830 5821 5827 5834 5836 5836 5832 5835 5832 5832 5832 5835 5837 5832 5826 5827 5825
5768 5767 5766 5765 5764 5762 5762 5761 5761 5763 5764 5765 5765 5766 5769 5771 5779 5783 5792 5794 5796 5800 5802 5804 5807 5809 5811 5816 5818 5812 5820 5822 5823 5824 5825 5825 5823 5824 5824 5831 5827 5824 5819 5820 5821
5759 5757 5755 5753 5752 5751 5751 5750 5750 5751 5752 5752 5752 5754 5756 5760 5772 5772 5776 5781 5785 5789 5793 5794 5798 5802 5801 5804 5806 5807 5809 5811 5810 5813 5818 5818 5817 5812 5817 5821 5817 5815 5813 5813 5815
5750 5748 5746 5744 5742 5741 5740 5739 5739 5739 5739 5740 5740 5741 5745 5756 5758 5763 5759 5766 5772 5778 5782 5786 5788 5789 5793 5794 5795 5796 5795 5798 5802 5808 5809 5812 5798 5801 5809 5807 5802 5804 5803 5804 5808
5738 5734 5731 5728 5726 5724 5724 5722 5722 5723 5723 5724 5726 5728 5734 5742 5743 5748 5753 5754 5758 5763 5771 5773 5775 5777 5776 5781 5784 5786 5787 5791 5799 5805 5804 5801 5781 5787 5795 5790 5789 5792 5794 5796 5801
5721 5717 5713 5710 5706 5704 5702 5701 5703 5706 5709 5710 5712 5714 5723 5726 5731 5734 5735 5742 5743 5747 5754 5756 5759 5764 5766 5768 5772 5773 5779 5785 5792 5802 5794 5786 5776 5779 5782 5779 5780 5784 5789 5791 5794
5706 5700 5694 5689 5685 5682 5680 5676 5679 5683 5688 5691 5695 5703 5707 5709 5716 5721 5723 5728 5732 5736 5738 5743 5745 5748 5754 5754 5755 5768 5776 5779 5783 5793 5781 5779 5770 5774 5775 5773 5776 5783 5785 5787 5788
5683 5676 5669 5662 5655 5650 5650 5647 5655 5658 5662 5667 5676 5683 5689 5692 5697 5704 5711 5713 5718 5722 5725 5731 5731 5735 5747 5751 5756 5764 5767 5771 5782 5779 5774 5771 5767 5771 5770 5770 5776 5779 5780 5782 5782
5659 5650 5641 5633 5624 5617 5612 5612 5619 5624 5631 5637 5649 5660 5669 5672 5680 5682 5695 5701 5706 5712 5719 5718 5719 5737 5733 5742 5749 5754 5758 5766 5773 5772 5766 5766 5763 5769 5770 5771 5773 5775 5777 5778 5779
5631 5620 5612 5605 5600 5595 5591 5589 5587 5589 5592 5618 5620 5636 5644 5649 5661 5668 5678 5686 5694 5699 5705 5709 5722 5720 5725 5733 5737 5745 5752 5763 5765 5762 5759 5758 5757 5764 5767 5767 5769 5772 5773 5775 5775
5608 5600 5595 5590 5584 5578 5576 5575 5570 5568 5567 5588 5599 5603 5614 5628 5641 5655 5660 5670 5677 5687 5695 5698 5709 5707 5712 5719 5731 5736 5750 5753 5757 5753 5754 5753 5748 5758 5761 5763 5766 5770 5770 5771 5770
5595 5589 5582 5574 5571 5566 5563 5561 5560 5559 5555 5569 5568 5575 5590 5608 5623 5638 5646 5654 5665 5676 5685 5693 5701 5702 5705 5712 5722 5731 5742 5745 5748 5745 5744 5748 5744 5757 5756 5758 5764 5767 5767 5767 5765
5584 5578 5571 5563 5558 5556 5552 5550 5550 5551 5551 5559 5554 5562 5569 5582 5601 5616 5627 5638 5651 5663 5674 5679 5687 5692 5701 5707 5715 5723 5730 5734 5736 5735 5728 5746 5744 5751 5753 5759 5760 5762 5762 5761 5762
5575 5567 5559 5552 5548 5544 5543 5541 5541 5541 5547 5546 5544 5550 5555 5563 5576 5598 5612 5623 5638 5648 5659 5666 5672 5684 5690 5698 5705 5712 5719 5723 5725 5723 5723 5744 5739 5748 5750 5752 5756 5757 5758 5759 5757
5565 5558 5549 5543 5537 5535 5534 5533 5533 5536 5536 5537 5542 5547 5552 5555 5563 5578 5592 5608 5621 5635 5644 5656 5664 5673 5682 5690 5699 5706 5713 5716 5719 5722 5726 5740 5729 5743 5750 5749 5750 5752 5754 5756 5756
5556 5548 5540 5533 5529 5526 5527 5528 5528 5528 5527 5531 5536 5541 5547 5550 5556 5560 5574 5590 5601 5617 5630 5643 5653 5665 5675 5683 5692 5699 5701 5713 5716 5718 5719 5731 5731 5739 5745 5744 5748 5750 5752 5753 5752
5550 5541 5532 5525 5521 5520 5521 5523 5522 5521 5522 5524 5528 5535 5536 5542 5547 5552 5560 5573 5586 5604 5621 5635 5642 5655 5665 5673 5681 5689 5699 5704 5706 5708 5711 5720 5728 5737 5741 5741 5745 5747 5749 5749 5749
5544 5537 5529 5525 5522 5521 5520 5521 5519 5517 5518 5519 5522 5529 5530 5533 5539 5542 5550 5564 5577 5593 5611 5624 5631 5645 5653 5662 5674 5681 5684 5689 5697 5701 5705 5711 5724 5735 5736 5738 5742 5745 5745 5745 5745
5539 5535 5528 5524 5524 5521 5521 5520 5518 5515 5513 5513 5517 5523 5526 5528 5532 5537 5545 5554 5570 5582 5596 5609 5621 5633 5648 5658 5666 5673 5679 5688 5695 5699 5701 5709 5722 5728 5731 5735 5739 5741 5742 5741 5741
5537 5531 5527 5524 5521 5520 5520 5520 5518 5516 5514 5513 5514 5518 5522 5526 5529 5534 5540 5549 5557 5570 5584 5597 5610 5625 5635 5646 5653 5661 5671 5677 5682 5687 5694 5705 5717 5721 5725 5730 5735 5737 5738 5738 5739
5535 5529 5522 5520 5520 5521 5520 5520 5519 5516 5514 5514 5515 5516 5517 5521 5524 5531 5537 5544 5549 5560 5572 5587 5601 5615 5629 5644 5652 5655 5661 5668 5675 5679 5690 5700 5712 5716 5721 5726 5731 5733 5734 5736 5736
5535 5528 5522 5518 5519 5521 5521 5520 5519 5517 5515 5515 5514 5514 5515 5518 5520 5522 5531 5541 5545 5552 5563 5579 5596 5610 5622 5632 5640 5648 5660 5665 5668 5677 5685 5701 5707 5711 5716 5723 5727 5730 5732 5734 5734
5537 5531 5526 5523 5522 5521 5521 5520 5519 5518 5517 5515 5514 5512 5512 5513 5514 5519 5525 5533 5540 5548 5556 5570 5586 5600 5615 5625 5633 5640 5645 5654 5664 5675 5685 5693 5702 5708 5714 5718 5722 5726 5730 5731 5732
5542 5535 5530 5527 5525 5524 5523 5521 5520 5518 5516 5514 5513 5511 5509 5510 5512 5514 5517 5525 5534 5542 5551 5563 5576 5590 5606 5615 5624 5630 5645 5653 5660 5667 5682 5690 5702 5704 5709 5715 5717 5724 5728 5729 5729
Wind_Speed
27 28 28 29 30 33 36 37 39 43 44 46 51 57 57 59 59 56 54 51 58 56 52 45 38 39 39 41 39 39 45 39 34 32 36 43 38 39 43 38 34 34 39 41 36
30 32 35 35 35 35 35 37 40 42 42 42 44 46 51 54 54 59 52 57 56 57 47 49 42 45 49 44 48 45 45 41 39 41 41 43 42 38 43 41 33 38 40 43 36
30 31 34 38 41 41 42 43 44 46 47 49 51 52 53 56 57 53 54 52 53 55 54 45 56 51 52 49 43 46 49 39 45 44 46 47 46 47 46 41 34 39 44 43 36
36 39 39 39 41 45 47 46 47 46 47 48 52 57 57 57 57 57 56 54 54 55 51 46 51 55 53 49 44 50 51 45 47 46 51 49 49 47 49 42 40 44 49 46 31
34 36 39 41 43 45 48 49 49 51 51 51 50 47 57 59 53 55 56 57 57 54 57 53 55 57 53 50 52 54 48 50 53 55 53 51 49 51 49 41 47 48 53 43 30
38 39 40 41 42 45 49 51 53 54 54 54 54 53 50 54 51 52 54 58 59 56 58 59 58 59 57 54 57 56 53 55 57 55 50 49 51 59 51 45 50 52 57 34 29
44 46 48 50 51 52 52 53 54 57 58 57 56 55 51 38 50 47 54 55 58 62 62 61 64 65 63 60 59 62 61 59 59 54 52 53 56 60 53 57 60 56 43 26 31
52 54 57 59 59 60 61 62 62 60 59 59 59 59 51 46 43 51 49 50 52 55 59 66 65 65 69 67 64 65 64 60 54 50 49 53 56 60 54 54 49 40 35 26 27
60 63 65 68 69 70 71 72 70 69 67 66 63 61 53 54 49 45 52 53 53 57 58 64 70 69 71 71 69 69 60 54 47 38 44 47 52 46 40 38 36 34 26 24 20
67 71 74 76 79 80 83 84 81 79 76 73 70 66 62 58 55 54 54 55 52 54 59 63 69 72 72 75 68 61 54 52 48 27 32 34 43 39 27 37 33 24 21 20 20
75 78 81 85 87 90 91 91 91 90 85 82 76 72 68 66 61 58 55 55 54 54 56 58 65 63 59 63 67 63 56 50 36 30 31 29 34 22 29 33 21 22 22 20 20
78 83 87 90 91 86 87 89 92 89 93 89 85 80 74 73 68 66 58 57 55 51 48 51 54 51 65 67 64 60 57 45 22 21 30 29 35 21 26 23 25 24 22 17 11
83 81 72 62 59 57 59 62 67 69 79 82 88 86 81 79 74 69 63 59 57 52 47 49 41 42 54 62 62 50 43 29 21 31 31 35 32 21 25 27 22 19 20 12 12
62 55 51 48 48 46 45 42 47 53 62 67 70 79 86 84 79 71 67 63 60 55 47 47 44 38 40 50 54 48 32 33 30 34 30 34 31 23 26 28 23 20 14 14 10
47 46 46 46 41 39 37 35 37 38 47 39 51 67 78 84 82 75 67 65 61 52 51 46 43 40 36 39 39 36 33 34 31 36 37 36 40 16 28 29 23 16 12 11 4
45 45 44 40 38 35 33 35 35 35 35 27 36 42 63 77 82 80 71 69 63 57 53 50 43 42 31 28 32 38 35 35 33 39 48 32 38 15 28 21 21 24 14 11 5
45 44 43 40 34 33 31 32 33 37 30 30 34 31 46 59 67 77 73 69 64 61 57 54 52 46 41 37 38 41 39 39 44 47 46 28 36 4 9 25 21 18 15 11 8
42 41 40 39 34 29 29 28 30 29 32 33 25 28 30 38 52 64 72 67 64 58 60 57 54 53 49 43 42 41 42 43 43 41 40 27 37 10 18 20 23 18 15 14 11
39 40 41 39 29 26 26 24 22 20 27 34 29 27 30 29 40 54 58 58 64 61 62 59 55 51 51 47 43 42 45 41 42 43 46 33 35 23 16 29 17 13 15 14 5
37 39 35 26 19 16 16 19 23 26 26 28 33 30 41 31 35 48 57 60 63 65 62 61 59 53 52 48 49 48 44 44 46 46 47 39 33 20 24 28 17 13 17 10 9
35 36 28 7 11 7 5 8 16 23 26 28 29 32 43 34 39 41 55 62 63 64 64 61 63 56 50 54 50 52 53 53 49 49 49 46 32 20 31 29 19 18 16 11 6
32 32 23 1 8 7 8 9 14 14 8 16 20 24 39 42 38 41 52 57 64 66 68 66 63 59 51 43 45 46 46 45 48 47 46 42 28 23 28 29 23 21 16 7 4
31 31 19 7 10 8 4 8 12 10 9 8 8 20 31 37 42 40 49 48 65 69 69 70 65 58 55 49 46 46 45 46 45 47 45 36 23 26 28 26 26 23 13 5 5
35 29 27 12 14 11 6 9 4 10 9 6 3 14 24 32 50 39 46 44 48 68 70 71 69 62 57 52 42 46 44 44 43 44 38 32 18 27 28 26 25 23 12 9 2
36 26 28 12 9 8 4 1 9 13 12 9 8 11 18 28 39 52 44 45 46 63 72 70 68 63 58 55 49 47 40 42 43 41 35 23 22 29 31 28 23 16 11 9 2
33 23 22 20 12 7 2 6 6 16 12 13 12 12 14 19 29 35 47 45 46 50 64 73 69 67 61 56 53 50 50 47 42 37 30 28 31 26 29 27 22 19 14 11 4
30 25 21 18 14 13 12 8 9 16 18 16 17 17 14 15 19 20 52 49 43 42 60 72 72 70 67 60 55 54 49 45 43 40 31 30 31 30 28 28 23 20 18 10 4
Wind_Direction
265 263 258 253 248 249 246 245 243 243 244 245 246 248 250 246 243 248 254 241 246 243 260 242 243 246 250 247 250 258 259 261 260 261 270 277 277 290 286 287 297 298 307 311 305
265 266 264 262 258 255 251 250 248 245 244 246 249 249 249 250 247 249 250 247 253 257 259 251 236 238 245 249 252 251 251 262 259 263 274 280 281 282 277 278 295 298 299 303 298
267 271 267 263 263 262 260 256 251 249 251 254 254 252 252 252 248 247 244 243 243 251 261 252 241 235 240 249 259 269 260 265 262 265 265 277 278 278 279 275 283 287 291 294 293
262 264 265 263 261 260 262 262 258 254 254 255 255 251 249 248 248 245 239 239 239 252 255 249 250 245 244 259 262 272 261 259 264 265 265 271 274 277 280 283 284 284 290 301 283
268 265 262 260 260 259 260 260 259 260 261 260 260 264 251 248 249 250 242 242 241 242 246 250 246 249 249 261 264 267 266 263 261 264 269 273 278 284 276 280 279 283 291 295 284
276 274 271 268 264 260 258 258 258 258 258 259 259 259 259 253 248 246 247 241 241 243 243 247 251 252 254 257 257 262 268 262 262 268 270 275 283 277 281 282 278 277 286 275 268
282 279 276 272 269 266 261 258 256 256 257 257 258 259 259 261 248 243 246 242 240 242 243 245 247 249 252 254 253 257 264 263 263 272 279 282 279 278 279 274 271 276 269 252 258
285 282 280 278 275 271 267 264 261 258 256 256 256 256 257 257 252 240 239 243 243 242 241 241 243 245 247 250 251 255 262 267 268 277 286 284 273 271 271 271 270 260 242 244 256
288 286 283 280 274 271 268 266 263 259 255 253 253 254 255 250 248 242 237 234 240 242 240 238 237 241 245 246 251 256 260 266 274 287 279 272 269 267 267 253 249 237 239 247 262
283 282 280 277 275 273 271 265 261 259 256 252 250 249 251 250 246 244 244 238 237 238 239 238 241 241 244 246 252 257 263 269 274 255 253 257 268 276 243 236 238 232 240 244 261
291 288 284 280 278 275 270 266 263 259 254 251 248 245 245 245 246 243 238 242 235 237 242 240 241 246 251 253 254 258 260 267 273 240 271 275 268 244 221 236 231 227 240 250 264
292 289 286 282 280 280 277 274 269 261 252 248 246 243 241 241 240 242 237 236 234 238 241 243 246 249 245 246 251 251 254 261 210 260 274 272 261 245 232 233 234 239 249 257 265
297 295 295 293 288 283 277 274 269 261 255 245 244 241 236 237 237 238 237 236 234 231 237 245 255 260 249 244 247 253 249 238 235 265 271 276 253 243 221 229 245 244 245 247 245
303 301 300 297 293 288 283 278 273 268 261 248 236 238 235 232 234 234 237 233 233 233 235 240 243 242 237 239 242 245 226 234 252 267 266 257 249 235 222 233 254 262 275 239 244
305 305 306 300 292 290 289 277 272 273 270 255 248 234 231 232 231 231 236 234 235 228 233 238 242 249 237 229 232 223 232 241 247 257 259 241 256 198 225 237 259 262 249 232 252
310 311 309 303 296 288 283 278 266 265 267 254 244 232 228 226 228 229 231 230 229 227 225 231 230 233 229 229 223 230 237 240 241 247 248 239 253 239 234 253 253 244 215 213 239
313 313 311 306 296 287 279 272 264 257 263 249 233 223 225 220 221 225 229 228 228 226 219 223 226 225 225 218 216 221 228 230 237 240 245 240 252 184 211 230 230 238 216 226 242
315 316 313 311 302 285 270 271 264 261 245 248 245 224 224 218 212 218 225 226 224 222 223 223 221 221 222 223 221 227 227 236 241 246 255 241 248 264 233 253 231 203 206 227 242
319 319 315 311 301 284 264 266 263 259 251 243 243 219 214 213 207 205 211 216 220 217 220 219 219 220 223 224 224 223 228 235 243 248 251 240 249 260 240 232 234 198 213 223 259
326 325 325 316 309 278 257 256 259 257 255 245 235 226 220 193 193 202 199 204 212 216 217 217 218 216 219 221 224 230 234 236 237 242 246 246 243 242 220 236 232 204 209 226 265
335 338 336 324 352 12 353 303 283 272 260 257 249 219 231 209 185 189 198 200 207 213 214 217 218 214 216 220 221 226 229 228 228 237 246 252 241 228 215 232 213 221 215 230 276
338 343 342 342 344 329 321 354 11 13 321 262 242 230 228 232 194 178 195 196 200 209 209 214 219 216 213 217 219 223 226 232 236 239 247 250 236 224 212 228 218 222 219 234 306
339 337 340 259 285 284 345 14 359 355 2 357 236 221 227 232 222 183 191 190 199 205 207 210 215 214 211 209 214 216 222 223 222 230 235 237 217 217 215 219 209 217 204 227 289
348 352 339 283 259 354 301 310 4 359 339 332 271 224 225 231 233 203 184 187 197 202 207 208 212 211 212 212 217 214 212 216 220 224 221 218 211 203 208 212 209 215 196 211 263
0 1 8 4 326 299 358 237 11 9 3 349 333 252 235 232 233 234 189 184 186 202 206 206 209 211 207 207 208 205 210 218 221 222 213 201 198 203 204 209 208 187 200 210 195
8 13 14 22 23 32 330 277 312 359 358 334 340 328 259 238 237 236 209 182 184 199 207 204 205 209 205 207 204 204 203 206 212 215 209 196 187 198 205 203 192 191 204 210 161
19 15 18 18 17 15 352 328 335 353 347 342 340 325 303 240 243 234 228 198 176 188 207 205 204 206 203 205 205 205 202 204 207 204 201 191 178 190 205 203 182 201 201 204 211